Theta_e
312 311 304 303 292 290 285 289 294 293 295 301 301 299 298 299 300 295 310 321 327 330 336 337 340 339 337 334 332 330 328 327 326 327 327 328 328 330 332 335 337 340 342 344 344 346 345 346 345
311 308 303 297 287 282 284 289 291 294 299 300 302 300 301 299 305 306 314 320 328 328 328 329 336 335 333 330 329 326 325 324 324 323 323 322 323 324 326 328 329 332 335 340 343 345 344 344 343
312 306 298 295 285 283 286 290 292 299 300 299 302 303 302 303 305 307 311 323 322 321 322 326 332 331 329 328 326 323 321 320 319 319 319 320 321 322 322 323 324 325 328 332 337 340 341 341 341
305 300 295 291 287 290 288 291 297 300 302 301 303 300 304 306 306 308 318 320 318 317 319 327 329 328 327 325 322 320 318 316 316 316 318 319 320 321 321 322 323 323 324 326 329 332 334 336 339
301 294 287 287 288 291 291 293 295 298 297 299 302 299 301 304 306 314 316 316 314 313 316 321 328 326 323 321 319 316 314 313 313 315 316 317 318 318 318 320 321 321 322 324 325 327 328 330 333
297 295 286 283 287 291 293 294 298 296 296 298 300 298 300 304 306 310 313 311 312 311 315 318 323 323 320 318 315 313 312 311 312 314 315 315 315 316 317 318 319 320 320 321 322 323 324 325 328
295 292 287 286 289 292 294 295 293 294 296 296 300 298 300 303 305 307 309 308 309 310 311 311 311 314 319 319 317 313 312 311 313 314 314 314 314 315 316 317 317 318 319 319 320 320 321 322 324
298 294 289 288 290 292 295 295 297 295 295 298 301 296 296 301 305 304 305 305 305 307 307 305 305 307 308 307 316 316 314 312 313 313 314 314 314 314 313 313 313 316 317 317 318 319 320 321 322
298 291 288 291 291 293 295 295 297 297 298 299 299 298 299 304 304 302 300 301 301 304 303 302 302 303 303 303 303 310 309 310 310 308 310 310 306 307 309 313 313 313 314 314 315 316 317 319 320
295 291 292 295 293 292 294 293 293 295 293 294 297 298 302 303 302 301 300 300 300 300 301 300 300 300 300 302 301 300 302 301 302 303 304 305 306 307 310 310 314 314 314 315 314 314 315 316 313
294 292 293 293 294 296 294 294 294 291 292 294 295 295 300 301 301 301 300 300 301 300 300 299 299 298 298 298 298 298 299 299 301 302 304 305 306 306 306 306 307 307 310 309 307 309 310 309 310
292 294 293 296 297 295 292 294 294 294 296 297 296 296 300 300 300 301 300 300 300 300 300 299 298 298 296 297 298 297 299 301 301 302 304 304 304 303 304 304 305 307 310 309 309 310 311 309 310
293 294 295 295 294 294 295 294 293 295 298 298 298 298 299 300 300 301 302 301 300 300 300 298 297 297 297 297 297 299 300 300 301 302 304 306 304 302 303 304 304 306 307 308 309 308 313 308 313
295 295 295 297 296 295 294 292 293 295 295 295 296 297 296 299 301 299 299 300 300 301 300 298 297 297 297 296 299 300 300 301 302 303 305 308 309 307 306 303 303 304 304 309 310 312 312 313 318
296 292 293 295 294 294 294 292 292 296 295 296 296 296 296 296 299 300 302 301 301 300 299 298 297 297 297 299 300 300 301 304 303 304 306 307 310 309 306 302 302 303 308 309 312 315 314 313 318
291 290 288 293 294 294 293 290 296 296 294 296 296 296 296 296 297 299 300 300 300 299 298 297 299 297 299 300 300 301 302 302 302 304 304 306 305 306 302 302 302 303 305 308 312 313 315 313 310
288 285 286 290 293 293 291 290 295 295 294 296 296 296 296 297 297 296 298 299 299 298 297 296 297 298 300 300 300 300 300 300 301 302 303 303 304 304 302 301 302 303 306 313 316 311 309 307 306
285 285 286 287 291 291 289 290 295 297 295 297 297 295 295 296 297 297 297 298 297 296 296 296 298 299 300 299 299 299 300 301 302 301 302 302 303 303 302 301 302 305 312 313 310 308 308 307 305
287 286 285 288 291 290 289 290 294 296 294 296 296 294 294 294 295 296 296 296 294 294 295 297 299 299 298 297 297 297 297 299 301 302 303 302 302 302 302 301 305 309 312 310 309 308 307 307 308
286 285 285 289 290 289 288 290 295 296 295 294 293 294 294 294 293 294 294 294 295 294 296 298 299 299 298 297 297 298 298 303 303 301 301 302 302 303 303 303 305 312 310 310 308 307 308 308 306
286 285 285 286 289 288 286 287 288 292 292 293 293 294 293 293 292 292 293 292 292 294 296 298 299 299 298 299 299 299 303 306 305 302 300 301 302 303 303 304 309 310 311 310 309 307 307 305 307
284 290 288 287 286 281 286 280 283 289 290 291 292 293 292 293 293 292 292 290 292 293 296 298 298 298 299 299 298 298 298 300 302 301 300 301 303 303 304 306 312 310 310 309 309 310 306 307 304
287 290 288 287 284 282 282 279 284 285 288 290 292 293 292 293 292 291 291 291 292 295 296 297 298 298 298 298 298 299 298 304 305 301 300 300 303 304 305 308 313 311 310 310 309 306 306 306 303
290 288 286 284 282 275 278 279 281 283 286 290 291 292 293 293 291 291 291 292 293 294 295 296 297 297 297 297 298 299 298 302 302 299 299 300 302 304 307 312 314 311 307 310 310 308 310 309 306
287 285 277 273 273 276 279 278 283 287 289 290 289 291 291 292 290 289 289 290 292 293 294 295 296 296 296 296 297 298 298 298 299 300 300 301 303 304 308 314 312 311 307 307 308 309 310 307 304
284 285 278 271 272 276 281 278 284 287 286 286 288 289 291 291 291 290 289 290 292 293 294 295 295 295 296 296 296 297 297 298 299 301 302 305 305 305 314 313 312 311 310 308 310 310 310 308 307
285 282 284 279 272 273 278 281 284 285 285 286 286 287 287 290 291 289 289 291 292 292 294 294 295 295 295 296 296 297 297 297 299 301 307 307 308 307 313 313 308 310 310 309 309 309 308 307 306
285 287 280 278 270 270 275 278 280 281 282 284 284 284 285 289 290 290 290 290 291 291 293 294 295 295 295 296 296 297 297 297 298 300 305 306 308 309 311 312 311 309 309 310 308 308 308 307 305
284 282 282 282 279 275 273 278 281 281 281 281 283 284 284 284 286 288 289 289 290 291 291 293 294 294 294 295 296 296 297 297 297 298 300 302 306 310 310 311 310 310 310 310 308 307 308 306 305
285 284 284 279 276 278 279 278 285 283 282 283 282 283 284 283 284 285 287 287 288 288 289 291 293 293 295 295 295 296 297 297 297 297 300 302 303 308 310 311 310 310 309 309 309 308 308 303 302
Wind_Speed
3 2 2 6 5 5 3 6 2 3 2 1 2 4 5 3 6 6 4 4 5 9 8 8 11 11 11 10 8 6 4 2 2 3 4 5 6 7 8 8 9 10 9 12 13 13 11 11 11
1 1 5 3 6 2 6 4 5 6 0 3 2 2 1 4 2 2 5 5 6 8 7 7 11 11 11 9 7 5 4 3 2 3 4 5 6 7 8 10 11 11 12 14 14 16 15 13 12
1 3 4 5 4 5 5 4 5 2 1 2 2 0 2 3 1 5 4 10 7 7 6 7 11 11 9 8 7 5 4 3 3 3 4 5 6 7 8 9 10 11 13 14 16 15 16 16 15
1 5 5 5 5 6 5 1 2 1 2 2 1 4 3 1 2 4 9 10 9 7 7 9 12 11 9 8 7 5 3 2 2 3 4 6 6 7 8 9 10 11 12 14 15 15 15 15 14
4 3 2 2 4 6 5 5 3 3 2 0 1 4 4 2 4 7 9 8 11 7 6 7 11 11 9 7 6 4 2 1 2 3 5 5 6 7 9 10 11 12 13 14 15 16 16 14 14
4 3 3 2 4 5 6 6 6 3 2 0 2 0 5 3 5 6 6 8 7 8 6 6 9 9 9 7 5 4 2 1 2 4 4 5 7 8 10 10 11 12 12 13 14 15 16 16 15
5 3 3 2 4 4 5 3 3 6 1 5 2 3 3 2 4 7 6 6 6 6 6 5 6 7 8 7 5 4 3 3 4 6 6 6 7 7 8 8 10 11 12 12 13 14 15 15 17
5 3 4 4 3 6 3 2 1 2 4 2 6 6 5 3 8 7 6 5 5 5 5 6 5 5 4 3 4 3 4 3 6 6 5 5 5 4 3 5 8 11 12 12 13 15 16 15 13
3 3 2 4 6 4 2 2 1 1 1 2 5 4 1 7 9 7 5 3 3 3 5 5 6 5 4 3 2 1 2 4 4 4 5 4 3 3 5 5 8 10 11 13 14 15 14 15 13
4 4 8 4 3 1 2 1 2 3 2 4 5 2 3 7 7 9 8 9 7 7 6 6 6 5 4 3 3 1 2 2 3 3 3 3 3 4 5 6 9 9 10 13 13 14 14 11 4
4 5 5 3 3 1 2 4 1 2 6 10 8 4 5 6 7 8 7 8 9 6 5 7 6 5 5 3 1 0 1 2 2 3 3 2 2 2 3 3 3 4 6 3 5 6 4 5 4
2 4 2 2 1 1 3 4 6 8 9 4 7 4 6 9 10 10 10 10 8 8 8 7 7 6 5 2 2 1 1 1 2 3 3 1 1 2 3 3 4 4 3 5 4 4 7 5 5
1 3 4 5 5 4 2 7 7 13 13 9 8 6 8 9 10 8 7 5 7 8 8 8 7 6 5 4 2 1 2 2 3 3 4 2 1 1 2 3 3 4 4 4 5 4 5 3 4
4 4 4 5 4 4 4 3 3 6 1 3 4 8 9 11 13 5 7 9 9 8 8 8 8 7 6 4 3 2 2 3 3 3 4 3 1 2 2 2 3 4 4 5 5 5 2 1 3
1 4 5 5 1 5 5 7 11 9 2 10 10 8 7 11 8 16 14 12 10 6 8 9 8 7 6 4 2 1 2 2 2 3 3 4 3 2 2 2 3 4 4 6 5 2 2 3 6
1 3 3 1 3 1 2 11 8 4 2 9 9 8 8 10 10 12 9 8 8 8 9 8 7 7 5 3 2 1 1 1 2 2 3 3 3 1 2 2 3 4 4 4 3 3 5 8 8
4 3 2 7 2 2 3 8 5 3 5 14 11 11 10 10 10 9 9 9 9 9 11 9 8 7 6 3 2 0 1 0 2 2 2 3 2 2 1 1 4 4 4 2 4 8 7 8 8
4 3 4 4 2 0 3 13 16 10 5 17 13 9 10 10 13 7 8 8 8 8 9 9 6 6 6 3 2 1 1 2 1 2 1 1 1 1 1 1 4 4 1 5 8 9 7 7 9
4 2 2 2 2 3 5 10 19 12 10 18 13 10 9 9 5 4 5 8 9 8 11 9 8 6 4 2 2 1 1 1 1 2 1 2 1 1 0 1 3 4 6 5 8 10 11 5 3
2 3 4 4 2 1 6 18 19 16 13 8 7 9 7 5 3 5 6 6 9 10 9 8 7 6 3 2 2 2 2 1 1 1 2 1 1 1 1 1 2 1 6 6 3 4 7 3 3
2 4 3 5 5 1 7 10 8 6 4 4 6 6 4 4 2 3 6 5 7 10 9 8 7 6 4 3 3 2 1 1 0 1 1 1 1 1 2 0 2 3 5 4 4 2 6 6 4
3 6 5 2 3 4 4 8 7 7 13 4 8 6 5 6 3 3 5 6 7 6 7 7 7 6 3 4 3 2 2 2 1 0 1 1 1 2 2 1 3 5 4 5 3 2 2 2 6
5 4 5 3 4 2 4 3 10 4 8 6 8 9 6 6 2 4 4 6 5 7 6 6 6 5 3 3 3 2 2 2 1 1 1 0 0 2 3 2 4 4 3 4 5 3 3 2 2
8 6 6 5 3 2 4 5 7 4 3 7 6 9 8 4 4 5 5 7 6 5 5 5 6 4 3 3 3 2 3 3 1 1 1 1 1 2 3 3 4 4 4 5 4 3 3 2 3
2 6 3 6 4 6 1 2 12 9 11 7 8 9 8 5 4 2 4 6 6 6 5 4 5 4 3 2 2 2 1 1 3 3 2 3 2 2 3 3 5 5 4 5 4 5 4 3 3
6 6 7 8 4 3 3 7 6 3 6 10 11 9 7 6 4 1 2 3 5 5 5 4 4 3 3 3 3 2 1 1 2 2 2 3 3 3 3 4 5 7 6 5 5 3 3 4 3
6 4 5 7 3 4 4 8 2 6 14 17 19 19 17 9 7 2 4 3 4 4 5 5 4 3 4 4 3 3 2 2 3 3 3 2 1 2 3 5 5 6 6 6 5 4 4 4 3
3 7 4 3 3 4 4 5 7 10 14 15 18 18 18 17 12 8 3 2 1 2 2 3 3 5 4 4 4 3 3 3 3 2 3 4 4 3 3 4 5 5 5 6 5 4 4 5 3
3 3 2 4 5 5 2 6 3 4 6 9 12 14 15 15 15 13 9 7 6 4 3 4 5 4 4 4 4 4 4 4 3 3 4 4 4 4 4 4 4 6 6 5 5 5 6 6 5
1 5 6 5 5 4 2 5 5 5 6 8 10 12 12 12 13 13 12 12 13 10 7 6 6 6 5 5 5 5 4 4 5 5 5 4 5 4 5 5 4 5 5 6 7 6 4 6 7
Wind_Direction
17 11 73 44 60 61 272 262 273 271 217 192 90 138 192 166 171 207 320 191 154 136 151 137 143 144 144 141 140 139 128 105 66 31 14 7 351 342 335 325 324 326 318 296 282 273 257 249 233
28 352 43 92 89 65 264 248 230 229 60 115 111 48 290 257 183 129 114 201 143 128 117 120 133 146 147 144 141 135 122 102 67 33 12 2 352 343 338 334 331 325 311 303 294 283 271 259 250
134 48 87 96 111 197 219 217 251 276 264 62 2 55 274 255 225 192 202 144 126 111 119 127 136 149 149 144 140 133 124 100 69 22 353 344 342 337 332 327 321 317 312 307 297 304 308 274 265
45 22 38 99 205 251 223 244 268 13 341 190 165 285 295 179 190 188 138 136 124 135 134 139 147 150 148 147 140 131 122 95 39 348 337 337 336 329 321 316 313 311 306 302 299 299 303 318 296
36 60 76 109 240 262 249 241 203 187 268 79 91 269 255 52 33 116 134 141 137 147 146 139 149 147 150 146 140 138 143 120 349 350 345 342 340 335 327 320 315 311 302 296 291 291 291 293 303
45 95 82 258 261 266 281 242 162 193 217 168 170 259 249 309 135 162 140 141 138 148 148 143 140 142 149 147 154 165 196 227 317 332 321 326 326 325 325 318 315 312 306 300 296 291 289 290 289
128 109 196 195 246 304 248 169 210 172 187 241 155 186 271 282 154 147 140 125 136 137 138 141 146 151 156 156 176 201 236 275 310 312 306 317 321 316 328 332 329 319 310 304 300 292 288 282 279
119 94 143 234 195 252 251 265 210 151 249 91 172 223 255 207 138 117 116 129 145 149 150 157 156 147 159 170 209 243 278 304 309 312 318 318 316 315 323 320 317 313 306 312 314 306 295 288 289
135 79 211 234 171 234 317 322 143 187 241 234 206 204 301 125 124 116 117 134 172 182 179 174 173 169 173 183 231 104 356 322 330 327 313 328 306 292 282 265 306 314 312 308 308 298 297 299 287
132 155 212 215 207 263 312 269 309 351 257 271 285 197 104 139 165 162 171 190 190 196 189 189 181 183 178 200 163 136 319 310 310 303 296 294 278 266 263 310 310 307 311 310 310 305 297 295 270
175 210 204 237 236 281 283 278 255 232 273 219 224 233 162 179 190 192 199 203 196 189 174 184 182 183 178 191 165 80 330 304 299 292 284 303 332 339 331 339 328 315 306 309 311 304 289 271 251
162 247 216 308 145 171 255 309 289 202 236 178 221 225 160 189 207 208 207 204 176 179 190 181 184 175 186 167 183 211 268 261 269 265 275 280 342 353 334 319 313 307 306 316 312 304 295 269 247
168 255 193 230 277 249 301 250 248 262 259 258 253 233 205 210 215 224 217 193 179 190 189 185 173 178 177 183 189 229 252 255 254 267 278 228 201 332 307 306 314 314 322 311 303 288 294 265 238
211 228 264 268 226 231 224 263 116 258 308 276 260 256 226 217 214 210 198 206 194 182 187 172 177 176 165 186 182 218 248 261 260 266 260 267 266 253 244 323 320 307 326 296 285 278 291 183 135
174 308 307 224 200 217 161 291 232 254 294 288 283 270 263 233 216 221 217 206 189 186 161 174 164 167 170 178 185 209 251 266 273 267 314 335 327 337 19 354 318 301 303 292 308 17 94 88 61
53 40 343 352 129 353 142 269 274 343 189 287 290 284 265 258 227 230 213 198 174 152 168 151 153 161 159 162 174 238 273 311 320 344 351 343 325 313 43 343 307 309 295 306 316 61 47 62 59
14 229 224 319 179 122 183 277 266 60 352 288 273 268 264 264 259 232 215 184 172 159 148 149 151 161 151 142 155 113 20 314 308 338 347 334 338 9 34 330 294 304 294 301 72 66 74 75 68
177 207 242 257 359 272 245 267 275 289 286 279 281 266 267 266 262 248 193 160 145 142 137 132 139 147 141 124 106 76 41 338 329 354 330 16 2 51 71 304 306 297 23 76 83 87 73 83 86
131 159 289 272 8 289 252 278 284 289 264 276 276 267 275 277 317 313 143 125 124 133 136 139 143 157 139 133 131 93 94 344 352 6 6 81 58 91 147 3 316 310 83 96 121 114 107 80 78
11 33 281 278 319 269 341 294 281 274 261 253 279 279 277 286 5 41 86 117 147 143 141 138 148 156 173 139 142 141 149 235 105 359 37 70 160 193 107 10 331 28 96 103 93 113 120 98 45
216 199 222 222 331 48 325 293 329 306 284 294 267 266 284 338 259 124 123 132 131 146 149 145 149 161 159 144 114 72 285 202 193 11 3 262 201 111 122 329 350 106 108 117 109 95 122 130 79
208 200 180 202 69 244 22 288 308 309 307 329 353 352 319 357 46 130 134 139 146 137 127 128 138 152 154 153 136 151 165 153 182 191 242 241 168 163 180 163 76 103 103 119 96 96 81 135 127
225 123 140 98 103 5 339 71 272 304 302 350 15 15 350 355 336 157 141 127 119 127 137 134 137 142 145 154 153 132 133 161 170 304 186 197 189 196 194 202 115 114 122 120 129 110 128 90 108
154 83 59 58 80 11 267 130 288 275 19 316 325 349 330 350 31 92 109 123 116 113 123 133 140 151 159 163 182 153 156 188 209 203 190 216 223 214 188 188 136 124 135 142 129 131 114 104 95
103 91 351 354 10 224 333 85 245 325 323 311 330 338 344 21 48 89 150 145 132 143 145 152 158 168 181 179 210 188 152 216 231 207 200 194 200 226 196 140 146 142 148 148 136 145 146 149 143
190 151 158 201 201 259 99 231 244 27 17 12 7 355 23 27 34 108 185 151 138 150 167 177 182 186 188 200 225 229 227 245 256 247 223 215 205 208 163 147 147 140 144 158 147 141 147 163 141
184 199 163 106 36 50 224 280 254 29 11 14 6 5 5 3 12 21 132 149 143 172 199 202 199 228 216 221 211 219 228 233 247 277 271 298 107 241 182 150 158 151 165 166 174 162 167 169 153
159 166 87 5 170 233 270 277 255 1 353 358 8 4 4 12 10 20 41 118 140 234 250 237 223 231 243 232 226 221 222 245 263 263 254 259 277 236 221 170 162 164 173 171 175 171 167 165 155
138 189 83 139 167 179 153 255 25 23 4 352 5 11 6 7 13 20 19 12 359 351 320 287 269 260 265 252 244 229 228 225 243 253 255 245 266 259 212 210 183 177 179 181 179 195 170 186 175
321 206 170 151 223 237 145 268 95 84 44 15 10 10 10 12 15 20 22 29 22 4 347 321 305 285 259 257 250 247 248 236 233 239 247 250 244 257 235 209 196 194 195 188 188 197 200 183 193